Погода в Советской Гавани

Россия / Хабаровский край     48°57′59″N   140°17′06″E
темп.,
°C
ветер,
м/с
пор.,
м/с
влажн.,
%
обл.,
%
осадки,
мм/ч
давл.,
гПа
погр.,
м
26 января, вт
вт2601:00−21св129427 0.0 103648
04:00−21ссв129352 0.0 103455
07:00−21с129299 0.0 103363
10:00−19с118599 0.1 1030191
13:00−16св1183100 0.2 1027193
16:00−15ссв1288100 0.4 1024129
19:00−15ссз1295100 0.3 102264
22:00−14ссз1196100 0.9 102136
27 января, ср
ср2701:00−13сз1296100 1.0 101834
04:00−11св1397100 3.1 1016147
07:00−9в1497100 1.4 1013148
10:00−9св3694100 4.6 1010401
13:00−12ссв4792100 3.3 1007348
16:00−13ссв4894100 5.8 1006314
19:00−14ссв4795100 2.3 1007300
22:00−14сз81672100 2.6 1010863
28 января, чт
чт2801:00−17сз71660100 0.0 1012841
04:00−18сз71661100 0.0 1013771
07:00−19зсз61561100 0.0 1015661
10:00−19зсз61363100 0.0 1017641
13:00−17зсз6115949 0.0 1017831
16:00−16сз486225 0.0 1017871
19:00−22зсз22790 0.0 101935
22:00−23зсз23780 0.0 102032
29 января, пт
пт2901:00−25сз22820 0.0 102026
04:00−26сз22829 0.0 101931
07:00−26ссз228341 0.0 101734
10:00−23ссз247458 0.0 1017198
13:00−18с3666100 0.0 1014501
16:00−18ссв5975100 0.0 1011592
19:00−18с3884100 0.0 1012315
22:00−18с31080100 0.0 1012563
30 января, сб
сб3001:00−17с3984100 0.0 1012564
04:00−17с3884100 0.0 1012378
07:00−18с3589100 0.0 1014153
10:00−15ссз3974100 0.0 1015440
13:00−12сз4868100 0.0 1015755
16:00−13сз4872100 0.0 1016580
19:00−16сз41080100 0.0 1017480
22:00−18сз41187100 0.1 1018490